Regional Weather Roundup
Issued by NWS

Home | Current Version | Previous Version | Graphics & Text | Print | Product List | Glossary On
Versions: 1 2 3 4 5 6 7 8 9 10 11 12 13 14 15 16 17 18 19 20 21 22 23 24 25 26 27 28 29 30 31 32 33 34 35 36 37 38 39 40 41 42 43 44 45 46 47 48 49 50
000
ASUS43 KOAX 290902
RWRNE

WEATHER ROUNDUP FOR NEBRASKA
NATIONAL WEATHER SERVICE OMAHA NE
400 AM CDT FRI APR 29 2016

NOTES: SATELLITE DATA IS BEING USED TO AUGMENT CLOUD COVER ABOVE
       12000 FEET.
       "FAIR" INDICATES FEW OR NO CLOUDS BELOW 12,000 FEET WITH NO
       SIGNIFICANT WEATHER AND/OR OBSTRUCTIONS TO VISIBILITY.

  * THESE STATIONS DO NOT REPORT WEATHER SUCH AS RAIN...SNOW OR FOG.

NEZ001>004-019>022-054>056-291000-
NEBRASKA PANHANDLE

CITY           SKY/WX    TMP DP  RH WIND       PRES   REMARKS
SCOTTSBLUFF    CLOUDY    34  32  92 E10       30.08F WCI  26
ALLIANCE       CLOUDY    37  35  92 NE6       30.08S WCI  32
CHADRON        CLOUDY    37  35  92 NE5       30.11F WCI  33
KIMBALL        CLOUDY    33  33  99 E6        30.07R FOG     WCI  27
SIDNEY         CLOUDY    34  33  96 E5        30.08R FOG     WCI  30
$$

NEZ057>060-069>072-079>082-291000-
SOUTHWEST NEBRASKA

CITY           SKY/WX    TMP DP  RH WIND       PRES   REMARKS
NORTH PLATTE   CLOUDY    41  38  89 NE7       30.11R
IMPERIAL       CLOUDY    41  38  89 E6        30.08S
LEXINGTON      CLOUDY    42  40  91 NE6       30.11S
MCCOOK         CLOUDY    44  40  85 E5        30.09R
$$

NEZ005>010-023>029-035>040-094-291000-
NORTH CENTRAL NEBRASKA

CITY           SKY/WX    TMP DP  RH WIND       PRES   REMARKS
VALENTINE      CLOUDY    39  37  92 N8        30.09F WCI  33
BROKEN BOW     CLOUDY    41  38  89 CALM      30.11R
ORD            CLOUDY    41  39  93 S5        30.10S
$$

NEZ041-046>049-061>064-073>077-083>087-291000-
SOUTH CENTRAL NEBRASKA

CITY           SKY/WX    TMP DP  RH WIND       PRES   REMARKS
GRAND ISLAND   CLOUDY    40  38  93 N5        30.13R
AURORA         CLOUDY    41  40  95 NW3       30.12R
HASTINGS       CLOUDY    42  39  89 N6        30.10F
KEARNEY *      CLOUDY    43  39  87 NE5       30.12R
YORK           CLOUDY    43  39  87 CALM      30.12S
$$

NEZ011>018-030>034-042>045-291000-
NORTHEAST NEBRASKA

CITY           SKY/WX    TMP DP  RH WIND       PRES   REMARKS
NORFOLK        CLOUDY    42  38  85 CALM      30.12R
ALBION         CLOUDY    42  38  86 NW3       30.12R
BLAIR          CLOUDY    44  41  90 N5        30.11S
COLUMBUS *     CLOUDY    43  34  70 NW6       30.12F
FREMONT        CLOUDY    43  41  92 N3        30.12F
TEKAMAH        CLOUDY    44  41  89 N5        30.13R
$$

NEZ050>053-065>068-078-088>093-291000-
SOUTHEAST NEBRASKA

CITY           SKY/WX    TMP DP  RH WIND       PRES   REMARKS
LINCOLN        CLOUDY    46  40  79 NW5       30.13F
OMAHA EPPLEY   CLOUDY    45  42  89 N5        30.12S
FALLS CITY     CLOUDY    48  41  76 N7        30.11F
$$

NEZ044-045-051>053-067-291000-
OMAHA AREA

CITY           SKY/WX    TMP DP  RH WIND       PRES   REMARKS
OMAHA EPPLEY   CLOUDY    45  42  89 N5        30.12S
BLAIR          CLOUDY    44  41  90 N5        30.11S
FREMONT        CLOUDY    43  41  92 N3        30.12F
OFFUTT AFB     CLOUDY    45  42  89 N5        30.11F
$$




USA.gov is the U.S. government's official web portal to all federal, state and local government web resources and services.